Volk, WI

8:27 PM CDT on July 23, 2017 (GMT -0500)
Volk

Weather History for KVOK - January, 2013

Change the Weather History Date:

Tuesday, January 15, 2013

  Actual Average Record
Temperature  
Mean Temperature 16 °F -  
Max Temperature 30 °F 20 °F 37 °F (2015)
Min Temperature 1 °F 9 °F -2 °F (2017)
Degree Days  
Heating Degree Days 50    
Moisture  
Dew Point 9 °F    
Average Humidity 68    
Maximum Humidity 90    
Minimum Humidity 47    
Precipitation  
Precipitation 0.00 in - - ()
Snow  
Snow 0.00 in - - ()
Snow Depth 1.00 in    
Sea Level Pressure  
Sea Level Pressure 30.26 in    
Wind  
Wind Speed 5 mph (South)    
Max Wind Speed 14 mph    
Max Gust Speed 18 mph    
Visibility 10 miles    
Events      
Averages and records for this station are not official NWS values.
T = Trace of Precipitation, MM = Missing Value Source: NWS Daily Summary

Daily Weather History Graph

Daily Weather History Graph

Search for Another Location

Airport or City:

Trip Planner

Search our weather history database for the weather conditions in past years. The results will help you decide how hot, cold, wet, or windy it might be!

Date:

Astronomy

Jan. 15, 2013 Rise Set
Actual Time 7:32 AM CST 4:49 PM CST
Civil Twilight 7:00 AM CST 5:21 PM CST
Nautical Twilight 6:24 AM CST 5:57 PM CST
Astronomical Twilight 5:50 AM CST 6:31 PM CST
Moon 9:27 AM CST (1/15) 9:51 PM CST (1/15)
Length of Visible Light 10h 21m
Length of Day
9h 17m
Waxing Crescent, 19% of the Moon is Illuminated
Jan 15
Waxing Crescent
Jan 18
First Quarter
Jan 26
Full
Feb 3
Last Quarter
Feb 10
New

Hourly Weather History & Observations

Time (CST) Temp. Windchill Dew Point Humidity Pressure Visibility Wind Dir Wind Speed Gust Speed Precip Events Conditions
12:55 AM 2.7 °F - -0.8 °F 86% 30.42 in 10.0 mi Calm Calm - N/A   Clear
1:55 AM 2.1 °F - -1.3 °F 86% 30.41 in 10.0 mi Calm Calm - N/A   Clear
2:55 AM 2.8 °F -4.6 °F -0.4 °F 86% 30.41 in 10.0 mi SE 3.5 mph - N/A   Clear
3:55 AM 1.4 °F -6.2 °F -2.0 °F 86% 30.39 in 10.0 mi ESE 3.5 mph - N/A   Clear
4:55 AM 5.7 °F - 2.3 °F 86% 30.37 in 10.0 mi Calm Calm - N/A   Clear
5:55 AM 11.7 °F 1.1 °F 9.1 °F 90% 30.36 in 10.0 mi South 6.9 mph - N/A   Clear
6:55 AM 10.4 °F 0.8 °F 6.8 °F 85% 30.36 in 10.0 mi South 5.8 mph - N/A   Clear
7:55 AM 12.2 °F 2.9 °F 8.6 °F 85% 30.36 in 10.0 mi South 5.8 mph - N/A   Clear
8:55 AM 15.8 °F 10.2 °F 10.4 °F 79% 30.36 in 10.0 mi SSE 3.5 mph - N/A   Clear
9:55 AM 19.4 °F 12.8 °F 14.0 °F 80% 30.36 in 10.0 mi SSE 4.6 mph - N/A   Clear
10:55 AM 24.8 °F 16.1 °F 14.0 °F 64% 30.33 in 10.0 mi South 8.1 mph - N/A   Clear
11:55 AM 28.4 °F 17.5 °F 12.2 °F 51% 30.29 in 10.0 mi SSW 13.8 mph - N/A   Clear
12:55 PM 30.2 °F 20.8 °F 12.2 °F 47% 30.27 in 10.0 mi South 11.5 mph - N/A   Clear
1:55 PM 30.2 °F 25.4 °F 12.2 °F 47% 30.24 in 10.0 mi SW 4.6 mph - N/A   Clear
2:55 PM 30.2 °F 21.3 °F 12.2 °F 47% 30.22 in 10.0 mi SW 10.4 mph - N/A   Partly Cloudy
3:55 PM 30.2 °F 21.3 °F 12.2 °F 47% 30.21 in 10.0 mi SSW 10.4 mph - N/A   Partly Cloudy
4:55 PM 28.4 °F 22.2 °F 12.2 °F 51% 30.20 in 10.0 mi SSW 5.8 mph - N/A   Partly Cloudy
5:55 PM 25.5 °F 18.7 °F 12.4 °F 58% 30.19 in 10.0 mi South 5.8 mph - N/A   Clear
6:55 PM 24.8 °F 16.9 °F 12.2 °F 59% 30.17 in 10.0 mi South 6.9 mph - N/A   Clear
7:55 PM 24.8 °F 14.0 °F 12.2 °F 59% 30.14 in 10.0 mi South 11.5 mph - N/A   Clear
8:55 PM 24.8 °F 13.4 °F 12.2 °F 59% 30.11 in 10.0 mi South 12.7 mph 18.4 mph N/A   Clear
9:55 PM 23.0 °F 12.4 °F 12.2 °F 63% 30.08 in 10.0 mi SSW 10.4 mph - N/A   Clear
10:55 PM 21.2 °F 12.6 °F 12.2 °F 68% 30.06 in 10.0 mi SSW 6.9 mph - N/A   Clear
11:55 PM 21.2 °F 9.5 °F 12.2 °F 68% 30.01 in 10.0 mi South 11.5 mph - N/A   Clear